BWA419 TBPB-TTPP

Flight info

Callsign BWA419
Flight time 0h 35m
Altitude 26000
Route BGI UR515 POS
Aircraft B38M/M-SDE1FGHILORVWXY/HB1

Departure

Time 2026-05-09 01:02
Airport Grantley Adams International Airport (TBPB)

Arrival

Time 2026-05-09 01:37
Airport Piarco International Airport (TTPP)
Time Latitude Longitude Altitude Speed Heading
2026-05-09 00:27 13.07881 -59.48754 180 ft 0 kts 345°
2026-05-09 00:53 13.07869 -59.48750 180 ft 2 kts 345°
2026-05-09 00:53 13.07853 -59.48746 180 ft 2 kts 344°
2026-05-09 00:53 13.07837 -59.48741 180 ft 2 kts 343°
2026-05-09 00:54 13.07822 -59.48736 180 ft 2 kts 340°
2026-05-09 00:54 13.07806 -59.48730 180 ft 2 kts 332°
2026-05-09 00:54 13.07794 -59.48719 180 ft 2 kts 279°
2026-05-09 00:54 13.07796 -59.48702 180 ft 2 kts 256°
2026-05-09 00:55 13.07797 -59.48698 180 ft 0 kts 256°
2026-05-09 00:58 13.07790 -59.48722 180 ft 8 kts 250°
2026-05-09 00:58 13.07748 -59.48779 180 ft 11 kts 227°
2026-05-09 00:58 13.07715 -59.48860 180 ft 14 kts 256°
2026-05-09 00:58 13.07690 -59.48964 180 ft 16 kts 256°
2026-05-09 00:59 13.07661 -59.49086 180 ft 19 kts 256°
2026-05-09 00:59 13.07622 -59.49245 180 ft 26 kts 256°
2026-05-09 00:59 13.07574 -59.49432 180 ft 29 kts 255°
2026-05-09 00:59 13.07525 -59.49638 180 ft 31 kts 255°
2026-05-09 01:00 13.07469 -59.49857 180 ft 33 kts 255°
2026-05-09 01:00 13.07413 -59.50090 180 ft 34 kts 258°
2026-05-09 01:00 13.07355 -59.50336 180 ft 36 kts 256°
2026-05-09 01:00 13.07307 -59.50529 181 ft 26 kts 255°
2026-05-09 01:01 13.07262 -59.50696 180 ft 16 kts 244°
2026-05-09 01:01 13.07191 -59.50720 180 ft 13 kts 165°
2026-05-09 01:01 13.07110 -59.50687 180 ft 8 kts 125°
2026-05-09 01:01 13.07110 -59.50663 180 ft 6 kts 72°
2026-05-09 01:02 13.07153 -59.50484 180 ft 64 kts 77°
2026-05-09 01:02 13.07332 -59.49753 179 ft 145 kts 76°
2026-05-09 01:02 13.07603 -59.48528 332 ft 201 kts 78°
2026-05-09 01:02 13.07846 -59.46976 906 ft 235 kts 88°
2026-05-09 01:03 13.07497 -59.45451 1258 ft 220 kts 118°
2026-05-09 01:03 13.06268 -59.44491 1675 ft 239 kts 159°
2026-05-09 01:03 13.04547 -59.44400 2203 ft 257 kts 186°
2026-05-09 01:03 13.02842 -59.44993 2853 ft 270 kts 209°
2026-05-09 01:04 13.01306 -59.46163 3576 ft 278 kts 216°
2026-05-09 01:04 12.99761 -59.47363 4483 ft 280 kts 216°
2026-05-09 01:04 12.98181 -59.48565 5301 ft 285 kts 215°
2026-05-09 01:04 12.96577 -59.49771 6168 ft 288 kts 215°
2026-05-09 01:05 12.94949 -59.50986 6953 ft 291 kts 215°
2026-05-09 01:05 12.93298 -59.52214 7716 ft 295 kts 216°
2026-05-09 01:05 12.89956 -59.54690 9261 ft 301 kts 216°
2026-05-09 01:06 12.88248 -59.55955 10030 ft 304 kts 217°
2026-05-09 01:06 12.86500 -59.57246 10561 ft 317 kts 216°
2026-05-09 01:06 12.84679 -59.58586 11123 ft 325 kts 217°
2026-05-09 01:06 12.82841 -59.59944 11949 ft 326 kts 217°
2026-05-09 01:07 12.80995 -59.61309 12766 ft 329 kts 217°
2026-05-09 01:07 12.79134 -59.62684 13628 ft 331 kts 217°
2026-05-09 01:07 12.77259 -59.64071 14383 ft 334 kts 217°
2026-05-09 01:07 12.75364 -59.65472 15131 ft 339 kts 217°
2026-05-09 01:08 12.73443 -59.66893 15831 ft 343 kts 217°
2026-05-09 01:08 12.71521 -59.68313 16537 ft 347 kts 217°
2026-05-09 01:08 12.69551 -59.69769 17220 ft 351 kts 216°
2026-05-09 01:08 12.67559 -59.71240 17891 ft 355 kts 216°
2026-05-09 01:09 12.65542 -59.72730 18509 ft 360 kts 216°
2026-05-09 01:09 12.63501 -59.74238 19080 ft 363 kts 217°
2026-05-09 01:09 12.61446 -59.75755 19652 ft 366 kts 217°
2026-05-09 01:09 12.59381 -59.77280 19893 ft 364 kts 217°
2026-05-09 01:10 12.57322 -59.78801 19989 ft 371 kts 217°
2026-05-09 01:10 12.55207 -59.80354 19972 ft 388 kts 217°
2026-05-09 01:10 12.52971 -59.81996 19974 ft 403 kts 217°
2026-05-09 01:10 12.50662 -59.83690 19972 ft 413 kts 217°
2026-05-09 01:11 12.48310 -59.85420 19972 ft 419 kts 217°
2026-05-09 01:11 12.45943 -59.87163 19978 ft 420 kts 217°
2026-05-09 01:11 12.43575 -59.88909 19981 ft 419 kts 217°
2026-05-09 01:11 12.41207 -59.90654 19986 ft 419 kts 217°
2026-05-09 01:12 12.38843 -59.92398 19985 ft 419 kts 217°
2026-05-09 01:12 12.36479 -59.94140 19983 ft 419 kts 217°
2026-05-09 01:12 12.34150 -59.95857 19986 ft 420 kts 217°
2026-05-09 01:12 12.31758 -59.97616 19985 ft 427 kts 217°
2026-05-09 01:13 12.29337 -59.99396 19985 ft 430 kts 217°
2026-05-09 01:13 12.26905 -60.01186 19984 ft 430 kts 217°
2026-05-09 01:13 12.24478 -60.02972 19986 ft 430 kts 217°
2026-05-09 01:13 12.22049 -60.04760 19985 ft 430 kts 217°
2026-05-09 01:14 12.19621 -60.06547 19986 ft 430 kts 217°
2026-05-09 01:14 12.17230 -60.08306 19985 ft 429 kts 217°
2026-05-09 01:14 12.14807 -60.10089 19984 ft 429 kts 217°
2026-05-09 01:14 12.12385 -60.11869 19983 ft 429 kts 217°
2026-05-09 01:15 12.09964 -60.13649 19986 ft 428 kts 217°
2026-05-09 01:15 12.07544 -60.15428 19982 ft 428 kts 217°
2026-05-09 01:15 12.05128 -60.17204 19982 ft 428 kts 217°
2026-05-09 01:15 12.02713 -60.18979 19983 ft 428 kts 217°
2026-05-09 01:16 12.00295 -60.20755 19979 ft 428 kts 217°
2026-05-09 01:16 11.97882 -60.22527 19978 ft 427 kts 217°
2026-05-09 01:16 11.95500 -60.24277 19980 ft 428 kts 217°
2026-05-09 01:17 11.90669 -60.27822 19978 ft 427 kts 217°
2026-05-09 01:17 11.88257 -60.29592 19973 ft 427 kts 217°
2026-05-09 01:17 11.85844 -60.31363 19972 ft 427 kts 217°
2026-05-09 01:17 11.83432 -60.33131 19972 ft 426 kts 217°
2026-05-09 01:18 11.81024 -60.34897 19974 ft 426 kts 217°
2026-05-09 01:18 11.78619 -60.36661 19973 ft 426 kts 217°
2026-05-09 01:18 11.76245 -60.38401 19971 ft 425 kts 217°
2026-05-09 01:18 11.73843 -60.40161 19972 ft 425 kts 217°
2026-05-09 01:19 11.71439 -60.41922 19967 ft 425 kts 217°
2026-05-09 01:19 11.69041 -60.43679 19969 ft 425 kts 217°
2026-05-09 01:19 11.66644 -60.45434 19966 ft 424 kts 217°
2026-05-09 01:19 11.64246 -60.47190 19966 ft 424 kts 217°
2026-05-09 01:20 11.61847 -60.48946 19965 ft 424 kts 217°
2026-05-09 01:20 11.59449 -60.50701 19965 ft 424 kts 217°
2026-05-09 01:20 11.57049 -60.52457 19967 ft 425 kts 217°
2026-05-09 01:20 11.54681 -60.54189 19963 ft 424 kts 217°
2026-05-09 01:21 11.52283 -60.55943 19963 ft 424 kts 217°
2026-05-09 01:21 11.49881 -60.57699 19962 ft 425 kts 217°
2026-05-09 01:21 11.47483 -60.59452 19962 ft 425 kts 217°
2026-05-09 01:21 11.45079 -60.61209 19962 ft 425 kts 217°
2026-05-09 01:22 11.42681 -60.62962 19961 ft 425 kts 217°
2026-05-09 01:22 11.40281 -60.64716 19961 ft 425 kts 217°
2026-05-09 01:22 11.37879 -60.66470 19962 ft 425 kts 217°
2026-05-09 01:22 11.35506 -60.68203 19959 ft 425 kts 217°
2026-05-09 01:23 11.33106 -60.69956 19963 ft 425 kts 217°
2026-05-09 01:23 11.30705 -60.71708 19961 ft 425 kts 217°
2026-05-09 01:23 11.28302 -60.73462 19936 ft 423 kts 217°
2026-05-09 01:23 11.25912 -60.75206 19113 ft 425 kts 217°
2026-05-09 01:24 11.23491 -60.76972 18232 ft 431 kts 217°
2026-05-09 01:24 11.21036 -60.78762 17101 ft 439 kts 217°
2026-05-09 01:24 11.18567 -60.80563 16210 ft 442 kts 217°
2026-05-09 01:24 11.16113 -60.82403 15639 ft 434 kts 221°
2026-05-09 01:25 11.14073 -60.84639 14554 ft 437 kts 235°
2026-05-09 01:25 11.12337 -60.87176 13725 ft 430 kts 236°
2026-05-09 01:25 11.10658 -60.89663 12624 ft 426 kts 237°
2026-05-09 01:25 11.09019 -60.92125 11690 ft 415 kts 237°
2026-05-09 01:26 11.07419 -60.94553 10783 ft 411 kts 237°
2026-05-09 01:26 11.05851 -60.96943 10001 ft 405 kts 237°
2026-05-09 01:26 11.04302 -60.99307 9533 ft 398 kts 237°
2026-05-09 01:26 11.02807 -61.01589 9183 ft 388 kts 237°
2026-05-09 01:27 11.01330 -61.03845 8856 ft 378 kts 237°
2026-05-09 01:27 10.99892 -61.06040 8506 ft 364 kts 237°
2026-05-09 01:27 10.98511 -61.08145 7883 ft 352 kts 237°
2026-05-09 01:27 10.97173 -61.10188 7277 ft 342 kts 237°
2026-05-09 01:28 10.95874 -61.12170 6769 ft 332 kts 237°
2026-05-09 01:28 10.94612 -61.14094 6279 ft 321 kts 237°
2026-05-09 01:28 10.93391 -61.15956 5810 ft 311 kts 237°
2026-05-09 01:28 10.92216 -61.17748 5558 ft 305 kts 237°
2026-05-09 01:29 10.91059 -61.19512 5432 ft 295 kts 237°
2026-05-09 01:29 10.89973 -61.21238 5314 ft 284 kts 238°
2026-05-09 01:29 10.88663 -61.22674 5219 ft 274 kts 213°
2026-05-09 01:29 10.86987 -61.23545 4955 ft 271 kts 203°
2026-05-09 01:30 10.85258 -61.24303 4661 ft 270 kts 202°
2026-05-09 01:30 10.83532 -61.25059 4352 ft 270 kts 202°
2026-05-09 01:30 10.81821 -61.25815 4141 ft 267 kts 202°
2026-05-09 01:30 10.80134 -61.26566 4095 ft 269 kts 202°
2026-05-09 01:31 10.78416 -61.27335 4095 ft 270 kts 202°
2026-05-09 01:31 10.76691 -61.28098 4099 ft 270 kts 202°
2026-05-09 01:31 10.74970 -61.28865 4094 ft 270 kts 202°
2026-05-09 01:31 10.73248 -61.29632 4104 ft 269 kts 202°
2026-05-09 01:32 10.71536 -61.30384 4092 ft 268 kts 202°
2026-05-09 01:32 10.69823 -61.31137 4106 ft 268 kts 203°
2026-05-09 01:32 10.68110 -61.31882 4083 ft 267 kts 202°
2026-05-09 01:32 10.66551 -61.32887 4061 ft 268 kts 229°
2026-05-09 01:33 10.65739 -61.34529 4028 ft 263 kts 258°
2026-05-09 01:33 10.65474 -61.36347 3783 ft 259 kts 264°
2026-05-09 01:33 10.65265 -61.38168 3457 ft 259 kts 264°
2026-05-09 01:33 10.65055 -61.39964 3080 ft 251 kts 265°
2026-05-09 01:34 10.64709 -61.41658 2703 ft 240 kts 243°
2026-05-09 01:34 10.63751 -61.42947 2488 ft 222 kts 221°
2026-05-09 01:34 10.62433 -61.43567 2414 ft 195 kts 183°
2026-05-09 01:34 10.61091 -61.43516 2002 ft 197 kts 172°
2026-05-09 01:35 10.59833 -61.43190 1668 ft 176 kts 144°
2026-05-09 01:35 10.59135 -61.42310 1393 ft 151 kts 99°
2026-05-09 01:35 10.59271 -61.41330 1147 ft 141 kts 71°
2026-05-09 01:35 10.59452 -61.40352 946 ft 142 kts 86°
2026-05-09 01:36 10.59466 -61.39344 768 ft 141 kts 87°
2026-05-09 01:36 10.59522 -61.38327 684 ft 145 kts 87°
2026-05-09 01:36 10.59522 -61.37304 629 ft 143 kts 90°
2026-05-09 01:36 10.59533 -61.36293 436 ft 141 kts 90°
2026-05-09 01:37 10.59531 -61.35308 256 ft 138 kts 89°
2026-05-09 01:37 10.59536 -61.34392 195 ft 117 kts 91°
2026-05-09 01:37 10.59540 -61.33753 195 ft 60 kts 90°
2026-05-09 01:37 10.59540 -61.33475 198 ft 34 kts 90°
2026-05-09 01:38 10.59539 -61.33226 200 ft 36 kts 90°
2026-05-09 01:38 10.59540 -61.33027 194 ft 21 kts 88°
2026-05-09 01:38 10.59578 -61.32960 200 ft 7 kts 19°
2026-05-09 01:38 10.59623 -61.32956 197 ft 6 kts 357°
2026-05-09 01:39 10.59660 -61.32958 198 ft 5 kts 357°
2026-05-09 01:39 10.59694 -61.32968 207 ft 5 kts 321°
2026-05-09 01:39 10.59710 -61.33023 200 ft 13 kts 273°
2026-05-09 01:39 10.59712 -61.33144 200 ft 19 kts 270°
2026-05-09 01:40 10.59712 -61.33289 200 ft 22 kts 270°
2026-05-09 01:40 10.59710 -61.33455 200 ft 25 kts 269°
2026-05-09 01:40 10.59709 -61.33590 200 ft 19 kts 270°
2026-05-09 01:40 10.59717 -61.33705 200 ft 12 kts 298°
2026-05-09 01:41 10.59786 -61.33733 204 ft 12 kts 359°
2026-05-09 01:41 10.59878 -61.33734 203 ft 15 kts 360°
2026-05-09 01:41 10.59967 -61.33744 204 ft 9 kts 331°
2026-05-09 01:41 10.59988 -61.33777 211 ft 1 kts 284°
2026-05-09 01:42 10.59993 -61.33796 204 ft 4 kts 285°
2026-05-09 01:42 10.59993 -61.33798 209 ft 0 kts 285°
2026-05-09 01:42 10.59994 -61.33800 208 ft 0 kts 286°